CAPE
2703 1016 772 2197 1001 531 492 615 3700 2454 2102 2017 2355 1857 2797 2330 2008 3115 2126 2250 3005 1777
2343 2019 1146 2600 3065 1469 2159 709 842 1072 2149 2102 1978 2591 3712 2084 2326 2452 2543 2492 2962 2352
2351 2488 2621 3122 3505 2760 2679 2437 1306 1533 1327 1725 2301 2604 3631 2671 3396 2938 2232 2379 4032 3714
2397 2169 2538 2402 3030 2885 3047 3138 2998 2304 1969 1722 2028 2624 3737 3704 2863 3564 3757 3179 3000 3311
2844 2652 2636 2527 2406 2947 3264 3652 3565 3363 2950 2422 2038 2962 3193 2417 2255 2272 2380 2627 3865 3382
2866 2952 2813 2916 2821 2778 3305 3592 3183 3475 3701 3275 2529 2699 3008 3373 2935 2185 2542 3045 3660 3648
3060 3145 2900 3083 3252 3228 3558 3764 3700 3950 3980 3685 3195 2593 2226 2693 3318 3345 2532 2959 3337 3440
3219 3273 3375 3141 3389 3516 3648 3664 3941 4051 3944 3606 2999 2089 2688 2544 2889 3518 3254 2997 2986 3334
3254 3566 3474 3371 3484 3728 3754 3821 4066 4024 3973 3754 2285 1161 892 1857 2325 2690 3047 3310 3666 3786
3454 3697 3681 3603 3860 3985 4035 3970 4077 4111 4069 4021 3999 1366 275 276 2195 2595 2910 3257 3513 3016
3560 3726 3929 4067 4108 4147 4161 4107 4192 4247 4233 4218 3874 2197 830 0 2003 2247 2710 3111 3587 3820
3567 3849 4099 4081 4169 4251 4291 4288 4286 4394 4383 4402 4184 1860 1084 40 1901 2121 2954 3352 3502 3502
3772 4027 4173 4222 4231 4316 4337 4188 3263 3809 4306 3874 4410 3270 566 184 1917 2363 1948 3031 3507 2491
4084 4201 4321 4456 4482 4481 4298 3631 4252 4209 4348 4414 4097 4320 1199 0 2767 2071 2018 1881 1725 1986
CIN
0 -10 -11 0 0 0 0 -1 -2 -5 0 0 0 0 0 0 0 0 0 0 0 -1
0 0 -1 0 -3 0 0 0 0 0 0 0 0 0 0 0 -4 -1 0 0 0 0
-9 -2 -1 0 0 0 0 -1 -2 -4 -5 -1 0 0 0 0 0 0 -2 0 0 0
-1 -10 -6 0 0 0 0 0 0 0 -2 -3 0 0 0 0 0 0 0 0 0 0
0 -1 -1 -1 0 0 0 0 0 0 0 0 0 0 0 0 0 0 0 0 0 0
0 0 0 0 0 0 0 0 0 0 0 0 0 0 0 0 0 0 0 0 0 0
0 0 0 0 0 0 0 0 0 0 0 0 0 -5 -10 -1 0 0 0 0 0 0
-1 0 0 0 0 0 0 0 0 0 0 0 -1 -29 -14 -18 -3 0 0 0 0 0
-3 0 0 0 0 0 0 0 0 0 0 0 -37 -106 -162 -95 -43 -26 -11 -6 -1 0
0 0 0 0 0 0 0 0 -1 -2 -1 0 -4 -119 -295 -308 -56 -34 -37 -26 -15 -32
0 -1 0 0 0 0 0 -4 -5 -6 -6 -5 -10 -97 -264 0 -98 -70 -52 -37 -28 -26
-8 0 0 0 0 0 0 -1 -3 -4 -5 -4 -18 -177 -300 -489 -120 -89 -62 -51 -56 -61
-15 0 0 0 -2 -2 -2 -9 -26 -11 -4 -24 -11 -76 -509 -555 -96 -66 -99 -77 -81 -166
-9 -2 0 0 0 -1 -10 -15 -6 0 0 -1 -13 -19 -410 -46 -106 -94 -92 -102 -98 -104
Wind_Speed
14 11 11 10 9 9 8 8 11 10 9 9 10 8 7 8 7 7 6 5 6 8
15 16 13 12 11 8 7 7 8 9 10 10 9 8 8 7 7 6 6 5 7 6
18 17 14 12 11 11 9 9 4 9 10 10 9 9 8 8 10 7 7 9 9 6
18 19 17 14 13 12 9 8 10 9 10 10 10 10 9 9 7 10 9 8 6 7
19 19 18 17 16 14 13 11 10 11 11 11 11 10 11 12 10 10 9 10 9 10
20 19 19 18 17 16 15 14 14 13 12 12 12 11 12 12 12 11 11 11 10 11
21 20 19 17 17 17 15 15 14 14 13 13 13 13 13 13 12 11 12 11 11 11
20 19 18 19 18 17 16 15 15 14 14 14 14 13 14 13 12 12 12 11 11 12
19 19 20 19 18 17 16 16 16 15 15 15 14 16 15 15 12 12 12 12 12 12
18 19 19 19 18 18 17 16 16 16 15 16 16 12 15 17 13 12 12 12 11 11
19 19 18 18 18 17 16 17 16 16 16 15 14 12 13 14 14 13 14 12 12 13
19 19 19 19 18 16 15 15 15 15 16 16 15 15 16 14 15 14 15 13 14 15
18 18 19 19 18 16 15 16 15 16 16 16 15 14 16 16 13 14 13 14 15 15
18 18 17 16 15 15 16 15 14 14 13 15 15 14 17 19 14 13 13 13 12 12
Wind_Direction
203 207 218 205 207 216 223 199 145 178 204 222 184 203 191 194 222 194 211 238 265 304
202 213 202 212 211 235 224 225 172 195 198 215 214 210 177 232 207 150 223 204 228 249
192 199 219 202 209 210 221 234 220 196 207 215 217 211 214 215 195 176 220 233 180 228
193 196 201 214 199 211 223 224 206 223 205 216 213 208 206 240 250 192 209 256 267 209
196 197 199 203 210 199 207 208 220 211 214 213 216 210 207 219 226 221 227 222 234 242
202 200 201 197 203 201 199 203 211 212 215 210 213 214 212 219 225 232 216 224 225 232
199 201 201 198 198 203 200 199 206 209 212 213 212 213 220 216 224 228 227 229 236 237
199 200 200 201 200 199 203 201 205 207 210 212 215 215 213 222 218 218 229 239 234 234
195 196 201 201 200 200 199 203 203 210 211 213 219 211 199 206 221 225 224 228 232 242
193 197 201 198 197 198 199 199 206 209 212 216 220 210 196 199 220 225 223 228 232 237
194 198 197 199 201 197 197 202 204 210 211 216 220 204 194 195 218 228 240 242 233 232
196 194 198 200 198 198 201 205 210 211 212 215 222 198 192 184 220 229 235 238 238 243
198 197 201 201 199 197 200 208 213 214 213 214 220 199 198 193 224 228 230 229 234 231
198 200 202 201 202 200 201 208 212 219 215 218 216 219 190 193 218 232 228 237 240 233